Regional Weather Roundup
Issued by NWS Little Rock, AR

Home | Current Version | Previous Version | Graphics & Text | Print | Product List | Glossary On
Versions: 1 2 3 4 5 6 7 8 9 10 11 12 13 14 15 16 17 18 19 20 21 22 23 24 25 26 27 28 29 30 31 32 33 34 35 36 37 38 39 40 41 42 43 44 45 46 47 48 49 50
000
ASUS44 KLZK 070105
RWRLZK

WEATHER ROUNDUP FOR ARKANSAS
NATIONAL WEATHER SERVICE LITTLE ROCK AR
800 PM CDT MON JUL 06 2015

NOTE: "FAIR" INDICATES FEW OR NO CLOUDS BELOW 12,000 FEET WITH NO
SIGNIFICANT WEATHER AND/OR OBSTRUCTIONS TO VISIBILITY.

ARZ001-003-010-029-070200-
NORTHWEST ARKANSAS

CITY           SKY/WX    TMP DP  RH WIND       PRES   REMARKS
FAYETTEVILLE   CLOUDY    79  72  79 S9        29.97R
FORT SMITH     PTCLDY    85  70  60 S6        29.94R HX  89
HARRISON       MOCLDY    77  73  87 S7        29.98R
BENTONVILLE    CLOUDY    81  70  69 S7        29.97R
ROGERS         CLOUDY    80  72  76 S14       29.97R
SILOAM SPGS    CLOUDY    79  70  73 S9        29.97R
HIGHFILL       CLOUDY    80  73  79 S8        29.96R
$$

ARZ004-005-016-070200-
NORTH CENTRAL ARKANSAS

CITY           SKY/WX    TMP DP  RH WIND       PRES   REMARKS
BATESVILLE     MOCLDY    81  75  83 NE5       29.95F HX  86
FLIPPIN          N/A     82  72  69 SW6       29.93S HX  87
MTN HOME       MOCLDY    80  73  79 SW3       29.95F
$$

ARZ040-041-070200-
WEST CENTRAL ARKANSAS

CITY           SKY/WX    TMP DP  RH WIND       PRES   REMARKS
MENA           PTCLDY    82  73  74 CALM      29.98S HX  88
MOUNT IDA      PTCLDY    82  74  76 CALM      29.95R HX  88
$$

ARZ009-017-025-026-028-070200-
NORTHEAST ARKANSAS

CITY           SKY/WX    TMP DP  RH WIND       PRES   REMARKS
JONESBORO      MOCLDY    82  73  74 S10       29.97R HX  87
NEWPORT        CLOUDY    78  75  90 SE7       29.97F THUNDER
WALNUT RIDGE   MOCLDY    81  73  78 S13       29.95S HX  85
BLYTHEVILLE    PTCLDY    82  74  76 S7        29.99R HX  88
$$

ARZ022-023-033-042-044-070200-
CENTRAL ARKANSAS

CITY           SKY/WX    TMP DP  RH WIND       PRES   REMARKS
LITTLE ROCK    MOCLDY    84  73  69 S6        29.97R HX  90
N LITTLE ROCK  MOCLDY    84  75  75 SW6       29.97R HX  92
JACKSONVILLE   PTCLDY    84  73  70 S7        29.97R HX  91
SEARCY         CLOUDY    82  76  81 SW6       29.98R HX  89
HOT SPRINGS    PTCLDY    84  73  69 S3        29.97R HX  90
RUSSELLVILLE   PTCLDY    83  73  72 S5        29.94F HX  89
CLINTON        FAIR      77  77 100 CALM      29.97F FOG
$$

ARZ036-070200-
EAST ARKANSAS

CITY           SKY/WX    TMP DP  RH WIND       PRES   REMARKS
WEST MEMPHIS   PTCLDY    80  75  84 S10       29.98S HX  85
$$

ARZ050-053-066-070-073-070200-
SOUTHWEST ARKANSAS

CITY           SKY/WX    TMP DP  RH WIND       PRES   REMARKS
ARKADELPHIA    FAIR      85  79  82 CALM      29.98R HX  98
CAMDEN         MOCLDY    84  73  70 MISG      29.94S HX  91
TEXARKANA      PTCLDY    84  74  71 S6        29.94R HX  91
EL DORADO      MOCLDY    84  75  74 SE5       29.95F HX  92
DE QUEEN       PTCLDY    86  73  65 CALM      29.94R HX  93
$$

ARZ056-057-069-070200-
SOUTHEAST ARKANSAS

CITY           SKY/WX    TMP DP  RH WIND       PRES   REMARKS
PINE BLUFF     MOCLDY    83  75  77 S7        29.97R HX  90
STUTTGART      MOCLDY    84  75  74 MISG      29.97R HX  92
MONTICELLO     PTCLDY    84  78  82 S5        29.98S HX  95

$$





USA.gov is the U.S. government's official web portal to all federal, state and local government web resources and services.